This demonstration page uses our WeatherBlox Daily Observations layout. Learn more.

Left ArrowRight Arrow

36.17497, -115.13722

Hourly Observations for July 27, 2017

Temp ( °F °C ) Dew Point ( °F °C ) Humidity (%) Winds ( mph kmh ) Pressure ( in mb ) Visibility ( mi km ) Precip ( " mm )
12:53 am 00:53 Clear 88 31.1 62 16.7 42 42 S 6 9 29.92 1013 10 16 N/A
1:53 am 01:53 Clear 87 30.6 63 17.2 45 45 WSW 3 6 29.91 1013 10 16 N/A
2:53 am 02:53 Mostly Clear 86 30 63 17.2 46 46 S 5 7 29.91 1013 10 16 N/A
3:53 am 03:53 Clear 84 28.9 62 16.7 48 48 SE 6 9 29.92 1013 10 16 N/A
4:53 am 04:53 Clear 84 28.9 62 16.7 48 48 N N/A 29.93 1014 10 16 N/A
5:53 am 05:53 Sunny 83 28.3 62 16.7 49 49 N N/A 29.94 1014 10 16 N/A
6:53 am 06:53 Sunny 85 29.4 62 16.7 46 46 N N/A 29.95 1014 10 16 N/A
7:53 am 07:53 Sunny 88 31.1 60 15.6 39 39 NW 5 7 29.96 1015 10 16 N/A
8:53 am 08:53 Mostly Sunny 90 32.2 60 15.6 37 37 N N/A 29.96 1015 10 16 N/A
9:53 am 09:53 Sunny 92 33.3 60 15.6 34 34 ENE 5 7 29.95 1014 10 16 N/A
10:53 am 10:53 Sunny 94 34.4 59 15 31 31 N N/A 29.94 1014 10 16 N/A
11:53 am 11:53 Sunny 97 36.1 57 13.9 26 26 SE 5 7 29.91 1013 10 16 N/A
12:53 pm 12:53 Sunny 100 37.8 55 12.8 22 22 VRB 3 6 29.89 1012 10 16 N/A
1:53 pm 13:53 Sunny 100 37.8 51 10.6 19 19 N N/A 29.86 1011 10 16 N/A
2:53 pm 14:53 Sunny 103 39.4 51 10.6 18 18 ENE 8 13 29.83 1010 10 16 N/A
3:53 pm 15:53 Sunny 102 38.9 51 10.6 18 18 N N/A 29.80 1009 10 16 N/A
4:53 pm 16:53 Sunny 103 39.4 50 10 17 17 SE 8 13 29.78 1008 10 16 N/A
5:53 pm 17:53 Sunny 103 39.4 49 9.4 16 16 ESE 7 11 29.76 1008 10 16 N/A
6:53 pm 18:53 Sunny 102 38.9 49 9.4 17 17 SE 10 17 29.77 1008 10 16 N/A
7:53 pm 19:53 Clear 100 37.8 50 10 18 18 SE 10 17 29.77 1008 10 16 N/A
8:25 pm 20:25 Clear with Thunderstorms 99 37.2 50 10 19 19 SE 9 15 29.62 1003 10 16 N/A
8:40 pm 20:40 Clear 99 37.2 50 10 19 19 SE 8 13 29.62 1003 10 16 N/A
8:53 pm 20:53 Clear 98 36.7 50 10 20 20 SE 7 11 29.79 1009 10 16 N/A
9:53 pm 21:53 Clear 97 36.1 50 10 20 20 S 5 7 29.80 1009 10 16 N/A
10:53 pm 22:53 Clear 96 35.6 50 10 21 21 N N/A 29.80 1009 10 16 N/A
11:53 pm 23:53 Clear 94 34.4 51 10.6 23 23 NW 3 6 29.79 1009 10 16 N/A

Powered by AerisWeather